Content
SEND FEEDBACK

Daily
Averages
Monthly
Summary
United States of America

DES PLAINES, ILLINOIS


Home > North America > United States > Illinois
Elevation: 651 feet     Latitude: 42 00N     Longitude: 087 54W

WEATHER
 
SELECT A DAY
Number of Records: 199,636;   Date Range: 7/8/95 - 12/20/14
 
SHARE

PRINT THIS DATA

[ ← Previous Day ]
WEATHER ALMANAC - JANUARY 7, 2013
[ Next Day → ]
[ °C ]   °F
Weather ElementAverageHighLow
Temperature29.8 °F41 °F (1:52 pm)18 °F (2:52 am)
Dewpoint20.8 °F25 °F (5:52 pm)15.1 °F (2:52 am)
Humidity70.9 %88 % (1:52 am)47 % (1:52 pm)
Barometer30.23 in30.35 in (1:52 am)30.13 in (4:52 pm)
Wind Speed11.4 mph21.9 mph (3:52 pm)
Wind Gust27.6 mph (2:52 pm)
Weather ElementAverage
Visibility8.8 mi
Wind DirectionSSW (193.5 °)

Weather ElementTotal
Precipitation---
Heating Degree Days35.5 (Base 65)
Averaged from 23 records on January 7, 2013
WEATHER CONDITIONS BREAKOUT
WIND DIRECTION BREAKOUT
WEATHER BY HOUR - JANUARY 7, 2013
[ °C ]   °F
Local TimeTemperatureDewpointHumidityBarometerVisibilityWind DirectionWind SpeedGust SpeedPrecipitationEventsConditions
1:52 AM19.0 °F16.0 °F88 %30.35 in6.0 miSSW (200°)4.6 mphClear
2:52 AM18.0 °F15.1 °F88 %30.35 in7.0 miSouth (190°)5.8 mphClear
3:52 AM18.0 °F15.1 °F88 %30.35 in7.0 miSouth (190°)5.8 mphClear
4:52 AM19.0 °F15.1 °F85 %30.34 in8.0 miSouth (180°)6.9 mphClear
5:52 AM19.9 °F16.0 °F85 %30.35 in7.0 miSouth (190°)6.9 mphClear
6:52 AM21.0 °F17.1 °F85 %30.35 in9.0 miSouth (190°)8.1 mphClear
7:52 AM23.0 °F17.1 °F78 %30.34 in9.0 miSSW (200°)10.4 mphClear
8:52 AM26.1 °F19.0 °F75 %30.33 in10.0 miSouth (190°)16.1 mphClear
9:52 AM28.9 °F19.9 °F69 %30.31 in10.0 miSouth (190°)13.8 mph23.0 mphClear
10:52 AM33.1 °F19.9 °F59 %30.27 in10.0 miSouth (190°)17.3 mph21.9 mphClear
11:52 AM37.0 °F19.9 °F50 %30.22 in10.0 miSSW (200°)11.5 mph25.3 mphClear
12:52 PM39.0 °F21.9 °F50 %30.18 in10.0 miSSW (210°)17.3 mph25.3 mphClear
1:52 PM41.0 °F21.9 °F47 %30.17 in10.0 miSSW (200°)15.0 mph21.9 mphClear
2:52 PM41.0 °F23.0 °F49 %30.16 in10.0 miSSW (200°)16.1 mph27.6 mphClear
3:52 PM39.0 °F24.1 °F55 %30.14 in10.0 miSouth (190°)21.9 mph27.6 mphClear
4:52 PM37.0 °F24.1 °F59 %30.13 in10.0 miSouth (190°)12.7 mph26.5 mphClear
5:52 PM35.1 °F25.0 °F67 %30.13 in9.0 miSouth (190°)12.7 mph25.3 mphClear
6:52 PM34.0 °F25.0 °F70 %30.14 in9.0 miSouth (190°)12.7 mphClear
7:52 PM32.0 °F25.0 °F75 %30.14 in8.0 miSouth (190°)9.2 mphClear
8:52 PM32.0 °F25.0 °F75 %30.14 in9.0 miSouth (190°)10.4 mphClear
9:52 PM32.0 °F25.0 °F75 %30.15 in9.0 miSSW (200°)10.4 mphClear
10:52 PM30.9 °F25.0 °F79 %30.14 in8.0 miSSW (200°)8.1 mphClear
11:52 PM30.0 °F24.1 °F79 %30.13 in7.0 miSouth (190°)8.1 mphClear
Hourly data recorded from KPWK, located miles away from Des Plaines, Illinois







STORIES FROM OUR PARTNERS